Weather Roundup
Issued by NWS

Home | Current Version | Previous Version | Graphics & Text | Print | Product List | Glossary Off
Versions: 1 2 3 4 5 6 7 8 9 10 11 12 13 14 15 16 17 18 19 20 21 22 23 24 25 26 27 28 29 30 31 32 33 34 35 36 37 38 39 40 41 42 43 44 45 46 47 48 49 50

466
NZUS93 KARX 240559
HRRWXR

CURRENT HOURLY OBSERVATIONS ACROSS
MUCH OF THE UPPER MISSISSIPPI VALLEY
NATIONAL WEATHER SERVICE LA CROSSE WI
100 AM CDT SUN SEP 24 2017


...SOUTHEAST MINNESOTA...


CITY           SKY/WX    TMP DP  RH WIND       PRES   REMARKS
ROCHESTER      CLEAR     70  63  78 S8        30.01R
ROCHESTER/MAYO FAIR      75  61  62 SE7       30.00R
WINONA         CLEAR     70  66  88 CALM      29.99R
AUSTIN         PTCLDY    72  63  73 S3        29.99S
ALBERT LEA     MOCLDY    73  64  73 SE6       29.98S
DODGE CENTER   CLEAR     68  63  83 SE6       29.99S
PRESTON        CLEAR     70  61  73 S3        30.02R
OWATONNA       CLOUDY    75  64  69 SE8       29.97S
FARIBAULT      PTCLDY    72  63  73 CALM      29.96F
$$

...ELSEWHERE IN MINNESOTA...


CITY           SKY/WX    TMP DP  RH WIND       PRES   REMARKS
MINNEAPOLIS    CLOUDY    78  65  63 S8        29.94S
INTNL FALLS    CLOUDY    57  54  89 CALM      30.02R
DULUTH         CLOUDY    64  64 100 NE5       29.99R THUNDER
RED WING       PTCLDY    75  61  60 CALM      29.96R
REDWOOD FALLS  CLOUDY    61  59  93 W10       29.94R FOG
MANKATO        PTCLDY    71  65  81 SE6       29.95R
WORTHINGTON    CLOUDY    61  60  97 NW7       29.95R
FAIRMONT       NOT AVBL
$$

...SOUTHWEST WISCONSIN...


CITY           SKY/WX    TMP DP  RH WIND       PRES   REMARKS
LA CROSSE      CLEAR     73  67  81 SW7       29.99S
PRAIRIE DU CHI CLEAR     73  62  70 E3        30.01S
BOSCOBEL       CLEAR     66  64  93 CALM      30.03R
LONE ROCK      NOT AVBL
PLATTEVILLE    CLEAR     72  65  77 E7        30.05R
FORT MC COY    CLEAR     63  62  95 CALM      30.02S
MAUSTON-NEW LI CLEAR     67  64  92 SE5       30.03S
VIROQUA        FAIR      73  64  72 SE7       30.04S
WIS DELLS      CLEAR     70  62  75 S3        30.05S
$$

...ELSEWHERE IN WISCONSIN...


CITY           SKY/WX    TMP DP  RH WIND       PRES   REMARKS
MILWAUKEE      CLEAR     74  67  78 S6        30.07S
MADISON        PTCLDY    75  66  73 S6        30.05S
GREEN BAY      CLEAR     71  67  87 S5        30.06S
EAU CLAIRE     NOT AVBL
BLACK RVR FLS  FAIR      63  63 100 CALM      30.01R FOG
MEDFORD        CLOUDY    68  64  85 S6        30.05R
WAUSAU         CLEAR     70  64  81 SE5       30.04S
WIS RAPIDS     CLEAR     72  63  73 S5        30.06R
MARSHFIELD     CLEAR     68  62  81 S5        30.04S
RICE LAKE      PTCLDY    71  65  83 SE3       30.00S
$$

...NORTHEAST IOWA...


CITY           SKY/WX    TMP DP  RH WIND       PRES   REMARKS
WATERLOO       CLEAR     73  62  68 SE8       29.98S
DUBUQUE        CLEAR     71  63  75 S5        30.04S
DECORAH        CLEAR     72  64  78 SE6       30.01S
MASON CITY     CLEAR     67  62  84 S5        30.00R
CHARLES CITY   CLEAR     72  63  73 SE8       30.00S
OELWEIN        CLEAR     72  64  78 SE7       30.02R
$$

...ELSEWHERE IN IOWA...


CITY           SKY/WX    TMP DP  RH WIND       PRES   REMARKS
DES MOINES     PTCLDY    74  65  73 SE8       29.96R
IOWA CITY      CLEAR     70  64  81 CALM      30.02R
FORT DODGE     CLEAR     75  65  70 SE6       29.96S
MARSHALLTOWN   CLEAR     72  63  73 SE6       29.98R
CEDAR RAPIDS   CLEAR     73  64  73 S6        30.00S
$$

...NORTHERN ILLINOIS...


CITY           SKY/WX    TMP DP  RH WIND       PRES   REMARKS
CHICAGO-OHARE  CLEAR     76  65  68 SE5       30.06S
CHICAGO-MIDWAY CLEAR     79  66  64 SE6       30.06S
MOLINE         CLEAR     72  63  73 CALM      30.01F
ROCKFORD       CLEAR     71  64  78 CALM      30.07R
PEORIA         CLEAR     75  63  66 SE5       30.04R
$$

NOTE: "FAIR" INDICATES FEW OR NO CLOUDS BELOW 12,000 FEET WITH NO
SIGNIFICANT WEATHER AND/OR OBSTRUCTIONS TO VISIBILITY. WIND
SPEEDS ARE IN MILES-PER-HOUR.




USA.gov is the U.S. government's official web portal to all federal, state and local government web resources and services.